Location: Dumpton Point
(51.3500°N, 1.4433°E)
Time: 05:15:39
(UTC+00:00)

Altair - Pass Details

Date: 01 October 2022
Orbit: 1501 x 1682 km, 47.2° (Epoch: 26 November)

Event Time Altitude Azimuth Distance (km) Brightness Sun altitude
Rises 05:21:00 0° 221° (SW) 4,778 9.7 -6.1°
Reaches altitude 10° 05:24:13 10° 215° (SW) 3,821 9.2 -5.6°
Maximum altitude 05:33:16 44° 148° (SSE) 2,147 8.6 -4.2°
Drops below altitude 10° 05:42:35 10° 80° (E) 3,937 11.5 -2.7°
Sets 05:45:57 0° 75° (ENE) 4,936 11.9 -2.2°
